Retour au catalogue

METEOR 2-7 DEB

ActifPO
NORAD 43301·DEBRIS·🇷🇺 Russia

Lancé May 14, 1981 depuis Plesetsk Cosmodrome

Loading…

Prochains Passages (prochaines 24 heures)

TLE

FraisSource: Space-Track

Époque: Sep 14, 2026, 13:22 UTC

1 43301U 81043Y   26257.55759651  .00002369  00000-0  88354-3 0  9993
2 43301  81.2616 335.0224 0044089 118.5407 242.0224 14.31164732527627

Suivez METEOR 2-7 DEB en temps réel avec AllMySat

Download on the App Store